Mexico City Airport, Mexico

2:54 AM CDT on September 30, 2016 (GMT -0500)
Lic Benito Juarez International

Weather History for MMMX - April, 2013

Change the Weather History Date:

Monday, April 1, 2013

  Actual Average Record
Temperature  
Mean Temperature 70 °F -  
Max Temperature 84 °F 78 °F 87 °F (1998)
Min Temperature 55 °F 48 °F 41 °F (2003)
Cooling Degree Days 4    
Growing Degree Days 20 (Base 50)    
Moisture  
Dew Point 37 °F    
Average Humidity 35    
Maximum Humidity 58    
Minimum Humidity 11    
Precipitation  
Precipitation 0.00 in - - ()
Sea Level Pressure  
Sea Level Pressure 30.16 in    
Wind  
Wind Speed 4 mph ()    
Max Wind Speed 17 mph    
Max Gust Speed 24 mph    
Visibility 8.1 miles    
Events      
Averages and records for this station are not official NWS values.
T = Trace of Precipitation, MM = Missing Value Source: Averaged Metar Reports

Daily Weather History Graph

Daily Weather History Graph

Search for Another Location

Airport or City:

Trip Planner

Search our weather history database for the weather conditions in past years. The results will help you decide how hot, cold, wet, or windy it might be!

Date:

Astronomy

Apr. 01, 2013 Rise Set
Actual Time 6:29 AM CST 6:50 PM CST
Civil Twilight 6:07 AM CST 7:12 PM CST
Nautical Twilight 5:42 AM CST 7:38 PM CST
Astronomical Twilight 5:16 AM CST 8:04 PM CST
Moon No Moon Rise 10:52 AM CST (4/1)
Length of Visible Light 13h 04m
Length of Day
12h 20m
Waning Gibbous, 66% of the Moon is Illuminated
Apr 1
Waning Gibbous
Apr 2
Last Quarter
Apr 10
New
Apr 18
First Quarter
Apr 25
Full

Hourly Weather History & Observations

Time (CST) Temp. Dew Point Humidity Pressure Visibility Wind Dir Wind Speed Gust Speed Precip Events Conditions
12:48 AM 64.4 °F 37.4 °F 37% 30.28 in 12.0 mi SSE 4.6 mph - N/A   Partly Cloudy
1:49 AM 62.6 °F 39.2 °F 42% 30.27 in 12.0 mi NNE 3.5 mph - N/A   Clear
2:46 AM 60.8 °F 41.0 °F 48% 29.71 in 12.0 mi Calm Calm - N/A   Clear
3:47 AM 60.8 °F 41.0 °F 48% 30.27 in 12.0 mi Calm Calm - N/A   Clear
4:45 AM 57.2 °F 41.0 °F 55% 30.27 in 12.0 mi NNE 5.8 mph - N/A   Clear
4:48 AM 55.4 °F 41.0 °F 58% 30.27 in 12.0 mi NE 5.8 mph - N/A   Clear
5:48 AM 55.4 °F 41.0 °F 58% 29.80 in 10.0 mi Calm Calm - N/A   Clear
6:23 AM 55.4 °F 41.0 °F 58% 30.30 in 6.0 mi ENE 3.5 mph - N/A   Partly Cloudy
6:44 AM 55.4 °F 41.0 °F 58% 30.30 in 8.0 mi Calm Calm - N/A   Scattered Clouds
7:20 AM 60.8 °F 41.0 °F 48% 30.32 in 7.0 mi Calm Calm - N/A   Partly Cloudy
7:22 AM 60.8 °F 41.0 °F 48% 30.32 in 7.0 mi Calm Calm - N/A   Partly Cloudy
7:43 AM 62.6 °F 41.0 °F 45% 30.32 in 7.0 mi ENE 4.6 mph - N/A   Scattered Clouds
8:22 AM 64.4 °F 41.0 °F 42% 30.33 in 7.0 mi NE 3.5 mph - N/A   Scattered Clouds
8:46 AM 64.4 °F 41.0 °F 42% 29.80 in 7.0 mi Calm Calm - N/A   Scattered Clouds
9:19 AM 68.0 °F 39.2 °F 35% 30.34 in 7.0 mi East 3.5 mph - N/A   Scattered Clouds
9:20 AM 68.0 °F 39.2 °F 35% 30.34 in 7.0 mi East 3.5 mph - N/A   Scattered Clouds
9:44 AM 69.8 °F 39.2 °F 33% 30.34 in 7.0 mi Calm Calm - N/A   Scattered Clouds
10:20 AM 73.4 °F 33.8 °F 23% 30.32 in 7.0 mi Calm Calm - N/A   Partly Cloudy
10:43 AM 75.2 °F 28.4 °F 18% 30.32 in 7.0 mi ENE 9.2 mph - N/A   Scattered Clouds
11:42 AM 78.8 °F 26.6 °F 15% 30.30 in 7.0 mi North 8.1 mph - N/A   Mostly Cloudy
11:44 AM 78.8 °F 26.6 °F 15% 29.68 in 7.0 mi North 9.2 mph - N/A   Mostly Cloudy
12:44 PM 80.6 °F 24.8 °F 13% 30.26 in 7.0 mi WSW 5.8 mph - N/A   Mostly Cloudy
1:44 PM 82.4 °F 24.8 °F 12% 30.22 in 7.0 mi Calm Calm - N/A   Mostly Cloudy
2:46 PM 84.2 °F 24.8 °F 11% 29.60 in 6.0 mi East 4.6 mph - N/A   Mostly Cloudy
3:41 PM 80.6 °F 24.8 °F 13% 30.16 in 6.0 mi WSW 3.5 mph - N/A   Overcast
3:43 PM 80.6 °F 24.8 °F 13% 30.16 in 6.0 mi WSW 3.5 mph - N/A   Overcast
4:41 PM 77.0 °F 37.4 °F 24% 30.16 in 6.0 mi South 9.2 mph 20.7 mph N/A   Overcast
4:43 PM 77.0 °F 37.4 °F 24% 30.16 in 6.0 mi South 9.2 mph 20.7 mph N/A   Overcast
5:45 PM 77.0 °F 35.6 °F 22% 29.65 in 6.0 mi South 16.1 mph - N/A   Overcast
6:31 PM 73.4 °F 37.4 °F 27% 30.21 in 6.0 mi South 11.5 mph 23.0 mph N/A   Overcast
6:48 PM 71.6 °F 39.2 °F 31% 30.23 in 6.0 mi South 11.5 mph 23.0 mph N/A   Overcast
7:44 PM 69.8 °F 39.2 °F 33% 30.26 in 8.0 mi SSE 12.7 mph 24.2 mph N/A   Mostly Cloudy
8:44 PM 68.0 °F 41.0 °F 37% 30.29 in 8.0 mi East 9.2 mph 20.7 mph N/A   Mostly Cloudy
8:46 PM 68.0 °F 41.0 °F 37% 29.77 in 8.0 mi NE 10.4 mph 24.2 mph N/A   Mostly Cloudy
9:14 PM 64.4 °F 41.0 °F 42% 30.30 in 10.0 mi NNE 17.3 mph - N/A   Mostly Cloudy
9:49 PM 64.4 °F 41.0 °F 42% 30.31 in 10.0 mi NE 9.2 mph - N/A   Mostly Cloudy
10:47 PM 64.4 °F 42.8 °F 45% 30.32 in 10.0 mi Calm Calm - N/A   Mostly Cloudy
11:50 PM 66.2 °F 41.0 °F 40% 29.69 in 10.0 mi WSW 3.5 mph - N/A   Mostly Cloudy